Flag Weather past 2 weeks in Utrecht, Netherlands

Now
54 °F

Clear.


Feels Like: 51 °F
Forecast: 51 / 63 °F
Wind: 8 mph from South

Location: Amsterdam Schiphol Airport

Current Time: Oct 31, 2014 at 9:37:00 AM

Latest Report: Oct 31, 2014 at 8:55 AM


Visibility: 4 mi

Pressure: 30.15 "Hg

Humidity: 100%

Dew point: 54 °F

Location of UtrechtLocation

Historic Weather in Utrecht — Graph

°F

Utrecht temperature yesterday

Maximum temperature yesterday: 59 °F (at 1:55 PM)
Minimum temperature yesterday: 52 °F (at 12:25 AM)
Average temperature yesterday: 55 °F

Past Weeks' High & Low Weather Summary

 TemperatureHumidityPressure
High72 °F (Oct 18, 3:55 PM)100% (Oct 16, 9:25 AM)30.21 "Hg (Oct 16, 9:25 AM)
Low46 °F (Oct 22, 4:55 AM)6% (Oct 21, 5:25 PM)29.42 "Hg (Oct 21, 1:25 PM)
Average56 °F89%29.99 "Hg
* Reported Oct 16 9:25 AM — Oct 31 8:25 AM, Utrecht, Weather by CustomWeather, © 2014

Note: Actual official high and low records may vary slightly from our data, if they occured in-between our weather recording intervals... More about our weather records

Advertising

Utrecht weather history for previous 24 hours

 ConditionsComfort  
Time TempWeatherWind HumidityBarometerVisibility
8:25 AM
Oct 31
54 °FFog.7 mph94%30.15 "Hg4 mi
7:55 AM52 °FFog.7 mph100%30.12 "Hg3 mi
7:25 AM52 °FFog.6 mph100%30.12 "Hg3 mi
6:55 AM52 °FFog.7 mph100%30.12 "Hg3 mi
6:25 AM50 °FFog.6 mph100%30.12 "Hg2 mi
5:55 AM50 °FFog.6 mph100%30.12 "Hg2 mi
5:25 AM50 °FFog.7 mph100%30.12 "Hg2 mi
4:55 AM52 °FFog.8 mph100%30.12 "Hg2 mi
4:25 AM52 °FFog.8 mph100%30.12 "Hg2 mi
3:55 AM52 °FFog.8 mph100%30.12 "Hg2 mi
3:25 AM52 °FFog.8 mph100%30.12 "Hg2 mi
2:55 AM54 °FFog.8 mph100%30.12 "Hg3 mi
2:25 AM54 °FFog.8 mph100%30.15 "Hg3 mi
1:55 AM54 °FFog.8 mph100%30.15 "Hg2 mi
1:25 AM54 °FFog.8 mph100%30.15 "Hg2 mi
12:55 AM52 °FFog.7 mph100%30.15 "Hg2 mi
12:25 AM52 °FFog.7 mph100%30.15 "Hg2 mi
11:55 PM
Oct 30
52 °FFog.7 mph100%30.15 "Hg3 mi
11:25 PM52 °FFog.7 mph100%30.15 "Hg3 mi
10:55 PM54 °FClear.7 mph100%30.15 "Hg4 mi
10:25 PM54 °FClear.8 mph100%30.15 "Hg4 mi
9:55 PM54 °FClear.8 mph100%30.15 "Hg4 mi
9:25 PM55 °FClear.8 mph94%30.15 "Hg4 mi
8:55 PM55 °FClear.9 mph100%30.15 "Hg4 mi
8:25 PM55 °FClear.9 mph100%30.15 "Hg4 mi
7:55 PM57 °FClear.9 mph94%30.15 "Hg5 mi
7:25 PM57 °FClear.10 mph100%30.15 "Hg5 mi
6:55 PM59 °FClear.8 mph94%30.15 "Hg4 mi
6:25 PM59 °FClear.10 mph94%30.15 "Hg4 mi
5:55 PM59 °FFog.9 mph94%30.15 "Hg3 mi
5:25 PM59 °FFog.8 mph94%30.12 "Hg3 mi
4:55 PM59 °FFog.9 mph94%30.12 "Hg3 mi
4:25 PM59 °FFog.8 mph94%30.12 "Hg3 mi
3:55 PM59 °FFog.9 mph94%30.12 "Hg3 mi
3:25 PM59 °FFog.13 mph94%30.12 "Hg3 mi
2:55 PM59 °FFog.10 mph94%30.12 "Hg3 mi
2:25 PM59 °FLight rain. Fog.12 mph94%30.12 "Hg3 mi
1:55 PM59 °FFog.10 mph94%30.15 "Hg2 mi
1:25 PM57 °FFog.9 mph100%30.15 "Hg2 mi
12:55 PM57 °FFog.12 mph94%30.15 "Hg2 mi
12:25 PM57 °FFog.10 mph94%30.15 "Hg2 mi
11:55 AM55 °FFog.9 mph100%30.15 "Hg2 mi
11:25 AM55 °FLight rain. Fog.12 mph100%30.15 "Hg3 mi
10:55 AM55 °FLight rain. Fog.9 mph94%30.15 "Hg3 mi
10:25 AM55 °FFog.7 mph94%30.15 "Hg3 mi
9:55 AM54 °FFog.8 mph100%30.15 "Hg2 mi
9:25 AM54 °FFog.9 mph100%30.15 "Hg1 mi
Weather by CustomWeather, © 2014

See weather overviewHow to use our weather pages